Погода в Грибаново

Россия / Нижегородская область     55°28′08″N   45°13′11″E
темп.,
°C
ветер,
м/с
пор.,
м/с
влажн.,
%
обл.,
%
осадки,
мм/ч
давл.,
гПа
погр.,
м
17 апреля, сб
сб1700:00+8всв6128498 0.0 1024340
03:00+6всв5118618 0.0 1025268
06:00+5всв5127613 0.0 1025303
09:00+9всв710605 0.0 1025501
12:00+13всв78515 0.0 1025907
15:00+14всв78445 0.0 10241132
18:00+11всв610434 0.0 1024548
21:00+7всв613590 0.0 1024337
18 апреля, вс
вс1800:00+5всв512781 0.0 1024329
03:00+3всв512823 0.0 1024271
06:00+3всв512826 0.0 1024308
09:00+8всв69595 0.0 1023668
12:00+12всв78424 0.0 10231256
15:00+13в683994 0.0 10231751
18:00+11всв51050100 0.0 1023457
21:00+7всв81374100 0.0 1025647
19 апреля, пн
пн1900:00+5всв61271100 0.0 1026571
03:00+3всв6126373 0.0 1027435
06:00+1всв7126893 0.0 1028493
09:00+4в81151100 0.0 1028903
12:00+6в81040100 0.0 10281370
15:00+7в81035100 0.0 10281673
18:00+6в71143100 0.0 10281487
21:00+4в71444100 0.0 1029819
20 апреля, вт
вт2000:00+3в7144899 0.0 1029591
03:00+2в71454100 0.0 1029500
06:00+1в6156082 0.0 1029559
09:00+5вюв9124716 0.0 1029934
12:00+9вюв9123996 0.0 10281368
15:00+10вюв9123961 0.0 10261473
18:00+8вюв8134490 0.0 10251159
21:00+7вюв81542100 0.0 1024966
21 апреля, ср
ср2100:00+6вюв91647100 0.0 1022909
03:00+4юв101963100 0.3 1020882
06:00+3юв102089100 2.8 1019828
09:00+3юв102085100 4.7 1018873
12:00+4юв101884100 0.0 1018881
15:00+5юв101882100 0.0 1018896
18:00+5ююв101987100 0.0 1017741
21:00+6ююв91690100 0.3 1019874